Weather in Dragoman

Bulgaria     42°55′20″N   22°55′50″E
temp.,
°C
wind,
m/s
gust,
m/s
humid.,
%
clouds,
%
prec.,
mm/h
press.,
hPa
HPBL,
m
18 april, sun
sun1800:00+3ene2296100 0.9 1015125
03:00+3e2698100 1.1 1014388
06:00+3sse2898100 0.8 1013517
09:00+3se2397100 1.8 1014226
12:00+4se1194100 2.1 1015194
15:00+6w1191100 2.7 1015464
18:00+6wnw2294100 0.4 1016213
21:00+4ne119681 0.4 101737
19 april, mon
mon1900:00+4nne119784 0.0 101873
03:00+4nne1194100 0.0 101783
06:00+3ne2297100 0.1 1015126
09:00+3ne2296100 0.2 1015225
12:00+4ne1296100 0.4 1014373
15:00+3nnw1197100 2.4 1013382
18:00+3nnw1296100 1.5 1012371
21:00+3nnw1399100 1.6 1012382
20 april, tue
tue2000:00+2nw35100100 0.6 1013394
03:00+2wnw3699100 0.8 1013364
06:00+2wnw36100100 0.1 1013353
09:00+2w2599100 0.2 1015383
12:00+3w2696100 0.1 1016485
15:00+4wnw249286 0.1 1016461
18:00+7nw357529 0.0 1015796
21:00+3nw118682 0.0 101610
21 april, wed
wed2100:00+3w1189100 0.0 101721
03:00+4wsw119695 0.4 1018147
06:00+2wnw1399100 2.4 1019171
09:00+4w229369 2.4 1020311
12:00+7w247651 0.1 1019878
15:00+10wnw576058 0.6 10181658
18:00+10wnw46616 0.1 10171312
21:00+5n117618 0.2 101910
22 april, thu
thu2200:00+5ne0078100 0.0 102010
03:00+4wnw118330 0.1 102110
06:00+3wnw11852 0.0 102210
09:00+7wsw117444 0.0 1022198
12:00+12wsw23531 0.0 10211127
15:00+14w144749 0.0 10191894
18:00+13ssw025536 0.9 1019769
21:00+8ne11686 1.1 102010